Location: Ravensburg
(47.7866°N, 9.6124°E)
Time: 10:53:56
(UTC+02:00)

METEOR M2 - Pass Details

Date: 20 March 2026
Orbit: 817 x 824 km, 98.5° (Epoch: 19 April)

Event Time Altitude Azimuth Distance (km) Brightness Sun altitude
Rises 05:36:12 0° 8° (N) 3,374 ? -9.0°
Reaches altitude 10° 05:38:40 10° 2° (N) 2,436 ? -8.6°
Maximum altitude 05:43:42 42° 293° (WNW) 1,166 ? -7.7°
Drops below altitude 10° 05:48:42 10° 224° (SW) 2,419 ? -6.9°
Sets 05:51:09 0° 218° (SW) 3,347 ? -6.5°
